Weather History for Fountain Dale, PA

Change the Weather History Date:

Monday, January 21, 2013

  Actual Average (KHGR) Record (KHGR)
Temperature  
Mean Temperature 30 °F -  
Max Temperature 37 °F 33 °F 60 °F (2006)
Min Temperature 23 °F 20 °F 8 °F (2000)
Degree Days  
Heating Degree Days 34    
Moisture  
Dew Point 13 °F    
Average Humidity 51    
Maximum Humidity 58    
Minimum Humidity 43    
Precipitation  
Precipitation 0.00 in - - ()
Sea Level Pressure  
Sea Level Pressure 29.98 in    
Wind  
Wind Speed 3 mph (WNW)    
Max Wind Speed 13 mph    
Max Gust Speed 23 mph    
Visibility 10 miles    
Events      
Averages and records for this station are not official NWS values.
T = Trace of Precipitation, MM = Missing Value Source: NWS Daily Summary

Daily Weather History Graph

Daily Weather History Graph

Search for Another Location

Airport:

Trip Planner

Search our weather history database for the weather conditions in past years. The results will help you decide how hot, cold, wet, or windy it might be!

Date:

Astronomy

Jan. 21, 2013 Rise Set
Actual Time 7:25 AM EST 5:16 PM EST
Civil Twilight 6:56 AM EST 5:45 PM EST
Nautical Twilight 6:23 AM EST 6:18 PM EST
Astronomical Twilight 5:51 AM EST 6:50 PM EST
Moon 12:55 PM EST (1/21) 2:52 AM EST (1/21)
Length of Visible Light 10h 49m
Length of Day
9h 50m
Waxing Gibbous, 75% of the Moon is Illuminated
Jan 21
Waxing Gibbous
Jan 26
Full
Feb 3
Last Quarter
Feb 10
New
Feb 17
First Quarter

Hourly Weather History & Observations

Time (EST) Temp. Windchill Dew Point Humidity Pressure Visibility Wind Dir Wind Speed Gust Speed Precip Events Conditions
12:53 AM 30.9 °F 26.2 °F 10.9 °F 43% 30.07 in 10.0 mi Variable 4.6 mph - N/A   Clear
1:53 AM 28.9 °F - 10.9 °F 47% 30.09 in 10.0 mi Calm Calm - N/A   Overcast
2:53 AM 28.0 °F - 12.0 °F 51% 30.09 in 10.0 mi Calm Calm - N/A   Clear
3:53 AM 28.0 °F - 14.0 °F 56% 30.08 in 10.0 mi Calm Calm - N/A   Overcast
5:53 AM 26.1 °F - 12.9 °F 58% 30.07 in 10.0 mi Calm Calm - N/A   Mostly Cloudy
6:53 AM 26.1 °F - 12.9 °F 58% 30.07 in 10.0 mi Calm Calm - N/A   Overcast
7:53 AM 26.1 °F - 12.9 °F 58% 30.08 in 10.0 mi Calm Calm - N/A   Overcast
8:53 AM 27.0 °F - 14.0 °F 58% 30.07 in 10.0 mi Calm Calm - N/A   Overcast
9:53 AM 27.0 °F 23.0 °F 12.9 °F 56% 30.07 in 10.0 mi WSW 3.5 mph - N/A   Overcast
10:53 AM 28.9 °F 23.9 °F 12.9 °F 51% 30.04 in 10.0 mi Variable 4.6 mph - N/A   Overcast
11:53 AM 30.9 °F - 14.0 °F 50% 29.98 in 10.0 mi Calm Calm - N/A   Overcast
12:53 PM 32.0 °F - 16.0 °F 52% 29.94 in 10.0 mi Calm Calm - N/A   Overcast
1:53 PM 34.0 °F - 17.1 °F 50% 29.88 in 10.0 mi Calm Calm - N/A   Overcast
2:53 PM 36.0 °F 30.3 °F 19.0 °F 50% 29.85 in 10.0 mi Variable 6.9 mph - N/A   Mostly Cloudy
3:53 PM 37.9 °F 32.7 °F 18.0 °F 45% 29.84 in 10.0 mi SW 6.9 mph - N/A   Overcast
4:53 PM 37.0 °F 33.3 °F 18.0 °F 46% 29.87 in 10.0 mi Variable 4.6 mph - N/A   Overcast
5:53 PM 34.0 °F 25.5 °F 18.0 °F 52% 29.91 in 10.0 mi North 11.5 mph 20.7 mph N/A   Overcast
6:53 PM 30.9 °F 24.3 °F 15.1 °F 52% 29.93 in 10.0 mi Variable 6.9 mph 18.4 mph N/A   Clear
7:53 PM 28.9 °F 20.4 °F 12.9 °F 51% 29.94 in 10.0 mi West 9.2 mph 23.0 mph N/A   Partly Cloudy
8:53 PM 28.0 °F 21.7 °F 10.9 °F 49% 29.92 in 10.0 mi Variable 5.8 mph - N/A   Clear
9:53 PM 27.0 °F 17.3 °F 10.0 °F 49% 29.94 in 10.0 mi NW 10.4 mph 18.4 mph N/A   Mostly Cloudy
10:53 PM 26.1 °F 15.0 °F 9.0 °F 49% 29.94 in 10.0 mi NNW 12.7 mph 21.9 mph N/A   Overcast
11:45 PM 24.8 °F 14.6 °F 8.6 °F 50% 29.91 in 9.0 mi WSW 10.4 mph 18.4 mph 0.00 in   Overcast
11:53 PM 23.0 °F 11.7 °F 7.0 °F 50% 29.96 in 10.0 mi NW 11.5 mph 21.9 mph 0.00 in   Overcast